Lid_Strength_Index
4 4 4 4 4 4 5 5 5 5 5 5 6 5 5 5 5 5 6 7 9 11 10 8 8 10 11 10 11 9 9 10 12 14 14 16 15 13 14 13 14 15 16 16 15 17 19 11 10 13 10 8 8 7
4 4 4 4 4 5 5 5 5 5 5 5 6 6 6 5 4 5 8 6 6 9 10 7 6 6 6 7 9 8 8 8 11 11 14 13 13 13 13 16 10 15 12 14 14 14 10 10 11 9 8 8 7 7
4 4 5 5 5 6 6 6 6 6 6 5 5 5 6 5 5 5 7 6 8 9 9 11 10 7 7 6 5 10 7 6 8 6 9 10 13 11 14 14 12 11 9 12 12 10 9 9 8 7 6 7 6 6
5 5 6 6 6 6 6 6 6 6 6 6 6 6 5 5 5 5 7 6 7 9 12 11 6 7 5 6 7 6 6 6 6 7 9 10 12 9 12 11 12 11 11 11 11 10 9 8 7 6 6 6 6 5
6 6 6 6 7 7 7 7 6 6 6 5 6 6 6 6 5 5 6 6 6 9 11 10 8 7 6 6 6 6 6 6 7 9 10 10 8 9 9 9 13 10 10 12 13 9 9 9 7 7 7 7 7 7
7 7 7 7 7 7 7 7 7 6 6 5 5 5 5 5 5 7 9 6 5 6 10 13 8 6 7 5 6 6 6 6 7 8 8 8 8 8 12 12 11 9 8 7 9 7 7 6 6 6 7 7 6 7
7 7 7 7 7 7 7 7 6 6 6 5 5 5 4 5 6 8 9 6 5 5 9 11 12 8 6 5 6 6 5 6 6 7 8 8 8 8 10 14 11 9 8 8 7 7 8 7 8 7 7 6 6 7
7 7 7 8 7 7 7 7 6 6 5 4 4 4 4 4 4 7 5 4 4 6 6 10 12 11 5 7 8 5 7 6 7 8 7 9 8 9 12 10 9 8 8 8 7 7 7 7 7 7 7 7 7 8
8 8 8 7 8 7 7 6 5 5 5 5 4 3 5 6 7 6 3 2 4 6 8 10 11 15 8 7 6 6 6 10 6 9 9 8 11 14 11 10 9 8 9 8 7 7 8 8 8 8 9 9 9 9
8 8 8 8 8 7 7 6 5 6 5 6 7 7 7 6 4 3 4 6 7 6 6 9 8 12 10 10 10 9 9 10 12 10 7 11 13 10 9 8 8 7 7 6 8 9 9 9 9 9 10 9 10 10
8 8 8 8 8 8 7 6 6 6 7 12 13 10 8 5 7 7 8 9 9 10 9 9 9 10 8 11 11 9 12 12 13 11 11 14 15 10 7 7 6 6 6 7 7 7 8 9 10 9 10 10 10 10
8 8 8 8 8 7 6 6 6 10 11 11 10 8 7 8 10 10 11 9 10 12 9 10 10 10 9 8 10 10 12 13 14 8 12 14 11 9 7 7 6 6 6 7 7 7 8 9 9 10 10 10 10 10
9 9 8 8 8 7 7 7 7 6 7 9 8 9 9 10 12 12 14 12 11 8 7 7 9 7 9 8 11 12 14 15 12 15 14 12 9 8 7 7 6 5 5 5 7 7 7 9 9 10 10 10 10 11
9 9 8 8 8 7 7 7 6 7 9 11 11 13 12 14 13 13 11 9 7 7 7 7 8 8 8 9 11 13 12 13 18 17 15 11 9 8 7 7 6 6 5 5 6 7 8 9 9 9 10 10 10 11
9 8 8 8 7 7 7 6 6 8 11 13 11 14 13 11 10 8 6 7 6 6 6 8 9 8 11 10 11 12 13 17 17 16 13 10 8 7 7 7 7 6 5 5 5 7 8 8 9 9 9 10 10 10
8 8 9 8 7 6 6 5 7 9 10 11 11 12 10 11 11 10 10 10 8 8 8 7 9 11 11 11 13 14 16 18 16 14 10 8 7 6 6 5 6 6 6 5 5 6 7 8 9 9 9 9 10 10
8 12 8 8 6 5 6 8 9 9 10 11 12 9 10 11 11 10 10 10 9 10 10 9 12 12 9 13 13 14 16 14 12 10 9 7 7 6 6 5 5 5 6 6 6 6 6 7 8 9 10 10 10 10
11 10 7 6 6 7 8 7 8 9 11 11 11 11 10 10 10 10 9 9 9 9 7 10 8 11 12 14 13 11 11 10 9 8 7 7 6 5 5 5 4 5 6 6 6 6 7 7 8 9 9 10 11 11
9 8 6 6 6 8 10 10 6 10 9 9 9 9 9 9 9 8 8 8 8 8 8 8 10 11 11 9 9 8 8 8 8 7 6 5 5 5 5 4 4 5 6 6 7 6 7 7 8 9 9 10 11 11
6 6 6 5 6 10 10 9 6 8 10 8 7 8 9 9 9 9 9 9 9 8 9 9 9 8 8 7 6 6 5 6 6 7 7 5 4 5 5 4 4 5 5 5 6 7 7 7 8 8 8 9 10 11
8 8 6 7 9 9 9 9 8 8 8 9 7 8 10 10 11 10 11 9 10 10 10 8 8 6 6 5 5 4 5 6 6 6 7 7 6 5 5 5 5 5 5 6 6 7 7 7 7 7 8 9 10 10
9 5 6 6 9 8 9 7 8 7 8 8 8 8 10 11 11 10 9 10 10 7 7 8 7 7 6 6 5 5 5 5 5 6 7 7 6 6 6 6 5 6 6 5 5 6 6 6 7 7 8 9 9 10
5 5 6 6 8 10 11 7 8 7 9 8 9 10 10 11 9 8 11 8 7 6 6 6 6 6 6 5 5 5 5 5 5 6 5 6 5 5 5 5 4 5 5 5 4 5 5 7 7 7 8 9 10 11
5 7 10 10 9 11 8 9 7 7 8 11 12 11 10 9 8 9 10 8 7 5 6 6 6 6 5 6 7 6 5 5 5 5 6 6 6 5 4 4 4 4 4 4 4 5 5 6 7 7 7 8 9 10
10 15 11 19 10 10 11 10 10 11 11 11 11 10 9 7 10 10 10 8 7 7 6 6 7 6 6 5 5 5 5 6 7 7 5 4 5 5 5 5 5 4 4 5 5 5 5 6 6 7 7 8 9 9
15 13 13 12 12 12 11 12 12 12 11 11 11 8 9 9 11 11 9 9 9 9 9 8 8 7 7 6 7 6 6 5 6 7 6 5 4 5 5 6 6 5 4 4 5 5 5 5 6 7 7 9 9 9
15 16 12 9 10 9 10 10 10 12 12 11 11 10 11 12 11 10 7 7 9 8 7 6 6 6 7 6 6 6 6 5 4 4 4 4 5 4 4 5 5 4 3 4 4 4 5 5 6 6 7 8 8 8
11 10 12 12 10 9 11 10 11 12 11 9 9 12 11 11 13 10 8 7 7 7 6 6 5 6 6 6 6 7 7 5 3 4 4 4 4 5 5 5 5 8 4 3 4 3 4 4 5 6 7 8 8 8
12 11 10 11 11 10 10 10 10 9 9 10 11 11 9 10 9 9 9 8 7 7 7 7 6 6 7 6 6 7 9 9 8 8 8 7 7 6 5 6 6 6 6 5 7 5 4 4 4 5 6 7 8 9
11 10 11 11 11 11 9 7 8 7 7 6 6 7 9 9 8 7 8 8 9 8 7 7 7 8 8 9 9 9 9 10 10 10 10 10 8 6 6 6 6 6 6 6 7 7 9 7 7 7 8 9 9 11
9 8 10 11 11 9 8 6 6 6 6 7 7 8 9 9 8 8 9 9 8 8 9 9 9 9 9 10 11 11 11 10 10 10 9 8 7 7 7 6 6 6 7 6 6 6 7 6 7 8 9 10 10 10
9 9 8 9 11 9 7 7 8 7 8 8 9 6 9 10 12 10 9 9 10 11 10 9 10 10 9 9 10 10 10 10 11 11 11 11 10 8 7 7 6 6 7 7 7 8 8 8 9 9 10 10 10 11
10 9 8 8 11 10 8 7 8 10 10 12 11 9 9 10 13 10 8 9 10 10 10 9 9 9 9 9 10 11 10 10 10 11 11 11 11 11 9 8 7 8 8 8 8 9 10 11 11 11 11 12 12 12